Regional Weather Roundup
Issued by NWS Goodland, KS

Home | Current Version | Previous Version | Graphics & Text | Print | Product List | Glossary On
Versions: 1 2 3 4 5 6 7 8 9 10 11 12 13 14 15 16 17 18 19 20 21 22 23 24 25 26 27 28 29 30 31 32 33 34 35 36 37 38 39 40 41 42 43 44 45 46 47 48 49 50
000
ASUS43 KGLD 011508
RWRGLD

GOODLAND FORECAST AREA HOURLY WEATHER ROUNDUP
NATIONAL WEATHER SERVICE GOODLAND KS
900 AM MDT MON SEP 01 2014

...OFFICIAL OBSERVATIONS...

CITY           SKY/WX    TMP DP  RH WIND       PRES   REMARKS
GOODLAND KS    PTSUNNY   63  52  67 NW7       30.03S
HILL CITY KS   CLOUDY    65  56  72 N9        29.96S
IMPERIAL NEB   MOSUNNY   61  52  72 W6        30.00S
MCCOOK NEB     MOSUNNY   62  54  74 W7        29.98R
AKRON CO       PTSUNNY   60  48  64 W8        30.07R
BURLINGTON CO  PTSUNNY   62  48  60 NW3       30.05S
LIMON CO       PTSUNNY   61  43  51 SE7       30.10S
$$

...UNOFFICIAL OBSERVATIONS...

CITY           SKY/WX    TMP DP  RH WIND       PRES   REMARKS
COLBY KS       CLOUDY    64  57  77 NW7       30.01S
GOVE KS          N/A     66  32  28 CALM        N/A
NORTON KS      LGT RAIN  61  52  72 NW10      29.96
SHARON SPRINGS   N/A     64  54  69 N6          N/A
WAKEENEY KS      N/A     67  52  57 MISG        N/A
KIT CARSON CO    N/A     66  48  52 CALM        N/A
YUMA CO          N/A     60  51  72 CALM        N/A
$$


USA.gov is the U.S. government's official web portal to all federal, state and local government web resources and services.